• In Deutschland
  • Länderverzeichnis
  • Für 7 Tage
  • Wassertemperatur
  • Satellitenkarten
  • Wetterkarte
  • Widgets
  • user-avatar
    Anmelden

    Stündliche Wetter Apenburg

    Heute, 24 April, Dienstag

    Zeit Temperatur Niederschläge Wind Luftdruck Luftfeuchtigkeit
    00:00 +10°C° 0 mm 1 m/S 758 mmHg 86%
    01:00 +9°C° 0 mm 1 m/S 758 mmHg 90%
    02:00 +8°C° 0 mm 2 m/S 758 mmHg 91%
    03:00 +8°C° 0 mm 2 m/S 757 mmHg 91%
    04:00 +8°C° 0 mm 2 m/S 757 mmHg 92%
    05:00 +9°C° 0,1 mm 3 m/S 757 mmHg 88%
    06:00 +10°C° 0,1 mm 4 m/S 757 mmHg 83%
    07:00 +9°C° 0,1 mm 5 m/S 757 mmHg 79%
    08:00 +9°C° 0,4 mm 5 m/S 757 mmHg 81%
    09:00 +9°C° 0,4 mm 5 m/S 757 mmHg 82%
    10:00 +10°C° 0,4 mm 5 m/S 757 mmHg 84%
    11:00 +10°C° 0,3 mm 5 m/S 757 mmHg 83%
    12:00 +11°C° 0,3 mm 6 m/S 757 mmHg 83%
    13:00 +11°C° 0,3 mm 6 m/S 757 mmHg 83%
    14:00 +12°C° 0,2 mm 5 m/S 756 mmHg 83%
    15:00 +12°C° 0,2 mm 5 m/S 756 mmHg 84%
    16:00 +12°C° 0,2 mm 5 m/S 756 mmHg 84%
    17:00 +12°C° 0,1 mm 4 m/S 756 mmHg 85%
    18:00 +11°C° 0,1 mm 4 m/S 756 mmHg 86%
    19:00 +11°C° 0,1 mm 3 m/S 756 mmHg 87%
    20:00 +11°C° 0 mm 3 m/S 756 mmHg 89%
    21:00 +10°C° 0 mm 3 m/S 756 mmHg 90%
    22:00 +10°C° 0 mm 3 m/S 756 mmHg 92%
    23:00 +10°C° 0,6 mm 3 m/S 755 mmHg 93%

    Morgen, 25 April, Mittwoch

    Zeit Temperatur Niederschläge Wind Luftdruck Luftfeuchtigkeit
    00:00 +10°C° 0,6 mm 3 m/S 755 mmHg 94%
    01:00 +10°C° 0,6 mm 3 m/S 754 mmHg 95%
    02:00 +11°C° 0,5 mm 3 m/S 754 mmHg 95%
    03:00 +11°C° 0,5 mm 4 m/S 753 mmHg 94%
    04:00 +12°C° 0,5 mm 4 m/S 752 mmHg 94%
    05:00 +12°C° 0,5 mm 4 m/S 752 mmHg 94%
    06:00 +12°C° 0,5 mm 4 m/S 752 mmHg 93%
    07:00 +12°C° 0,5 mm 4 m/S 752 mmHg 93%
    08:00 +13°C° 0,7 mm 4 m/S 752 mmHg 92%
    09:00 +13°C° 0,7 mm 4 m/S 752 mmHg 91%
    10:00 +13°C° 0,7 mm 4 m/S 752 mmHg 90%
    11:00 +13°C° 0,5 mm 4 m/S 752 mmHg 89%
    12:00 +13°C° 0,5 mm 4 m/S 752 mmHg 88%
    13:00 +13°C° 0,5 mm 4 m/S 752 mmHg 87%
    14:00 +13°C° 0,3 mm 4 m/S 752 mmHg 85%
    15:00 +14°C° 0,3 mm 4 m/S 752 mmHg 83%
    16:00 +14°C° 0,3 mm 5 m/S 752 mmHg 81%
    17:00 +13°C° 0,3 mm 4 m/S 752 mmHg 84%
    18:00 +12°C° 0,3 mm 3 m/S 752 mmHg 87%
    19:00 +11°C° 0,3 mm 3 m/S 752 mmHg 89%
    20:00 +11°C° 0,3 mm 3 m/S 753 mmHg 91%
    21:00 +10°C° 0,3 mm 3 m/S 753 mmHg 92%
    22:00 +9°C° 0,3 mm 3 m/S 754 mmHg 93%
    23:00 +8°C° 0,1 mm 3 m/S 754 mmHg 94%

    übermorgen, 26 April, Donnerstag

    Zeit Temperatur Niederschläge Wind Luftdruck Luftfeuchtigkeit
    00:00 +8°C° 0,1 mm 3 m/S 754 mmHg 94%
    01:00 +7°C° 0,1 mm 3 m/S 754 mmHg 94%
    02:00 +7°C° 0 mm 3 m/S 754 mmHg 94%
    03:00 +7°C° 0 mm 3 m/S 754 mmHg 94%
    04:00 +5°C° 0 mm 3 m/S 754 mmHg 94%
    05:00 +6°C° 0 mm 4 m/S 755 mmHg 92%
    06:00 +7°C° 0 mm 5 m/S 755 mmHg 90%
    07:00 +7°C° 0 mm 6 m/S 755 mmHg 88%
    08:00 +8°C° 0,3 mm 6 m/S 755 mmHg 83%
    09:00 +9°C° 0,3 mm 7 m/S 755 mmHg 79%
    10:00 +9°C° 0,3 mm 8 m/S 755 mmHg 74%
    11:00 +10°C° 0,4 mm 8 m/S 756 mmHg 72%
    12:00 +10°C° 0,4 mm 8 m/S 756 mmHg 70%
    13:00 +10°C° 0,4 mm 8 m/S 756 mmHg 68%
    14:00 +10°C° 0,3 mm 7 m/S 756 mmHg 66%
    15:00 +11°C° 0,3 mm 7 m/S 756 mmHg 65%
    16:00 +11°C° 0,3 mm 6 m/S 757 mmHg 63%
    17:00 +10°C° 0,1 mm 5 m/S 757 mmHg 68%
    18:00 +10°C° 0,1 mm 4 m/S 757 mmHg 72%
    19:00 +9°C° 0,1 mm 3 m/S 757 mmHg 77%
    20:00 +8°C° 0 mm 3 m/S 758 mmHg 81%
    21:00 +7°C° 0 mm 2 m/S 758 mmHg 85%
    22:00 +6°C° 0 mm 2 m/S 759 mmHg 89%
    23:00 +5°C° 0 mm 2 m/S 759 mmHg 89%

    27 April, Freitag

    Zeit Temperatur Niederschläge Wind Luftdruck Luftfeuchtigkeit
    00:00 +5°C° 0 mm 2 m/S 758 mmHg 89%
    01:00 +5°C° 0 mm 2 m/S 758 mmHg 90%
    02:00 +5°C° 0 mm 2 m/S 758 mmHg 89%
    03:00 +3°C° 0 mm 3 m/S 758 mmHg 89%
    04:00 +3°C° 0 mm 3 m/S 758 mmHg 89%
    05:00 +4°C° 0 mm 3 m/S 758 mmHg 85%
    06:00 +5°C° 0 mm 3 m/S 758 mmHg 81%
    07:00 +7°C° 0 mm 3 m/S 758 mmHg 77%
    08:00 +9°C° 0 mm 3 m/S 758 mmHg 71%
    09:00 +11°C° 0 mm 3 m/S 758 mmHg 65%
    10:00 +12°C° 0 mm 3 m/S 758 mmHg 59%
    11:00 +13°C° 0,2 mm 3 m/S 758 mmHg 58%
    12:00 +13°C° 0,2 mm 3 m/S 757 mmHg 56%
    13:00 +14°C° 0,2 mm 3 m/S 757 mmHg 54%
    14:00 +13°C° 0,1 mm 3 m/S 757 mmHg 55%
    15:00 +13°C° 0,1 mm 3 m/S 757 mmHg 55%
    16:00 +14°C° 0,1 mm 2 m/S 757 mmHg 56%
    17:00 +13°C° 0,1 mm 2 m/S 757 mmHg 62%
    18:00 +12°C° 0,1 mm 1 m/S 757 mmHg 68%
    19:00 +11°C° 0,1 mm 1 m/S 757 mmHg 74%
    20:00 +10°C° 0 mm 1 m/S 758 mmHg 78%
    21:00 +10°C° 0 mm 1 m/S 758 mmHg 81%
    22:00 +9°C° 0 mm 1 m/S 758 mmHg 85%
    23:00 +8°C° 0 mm 1 m/S 758 mmHg 87%

    28 April, Samstag

    Zeit Temperatur Niederschläge Wind Luftdruck Luftfeuchtigkeit
    00:00 +6°C° 0 mm 0 m/S 759 mmHg 89%
    01:00 +5°C° 0 mm 0 m/S 759 mmHg 91%
    02:00 +6°C° 0 mm 1 m/S 759 mmHg 92%
    03:00 +6°C° 0 mm 1 m/S 759 mmHg 93%
    04:00 +5°C° 0 mm 1 m/S 759 mmHg 93%
    05:00 +6°C° 0 mm 1 m/S 759 mmHg 91%
    06:00 +7°C° 0 mm 1 m/S 759 mmHg 88%
    07:00 +8°C° 0 mm 1 m/S 760 mmHg 85%
    08:00 +10°C° 0 mm 1 m/S 760 mmHg 77%
    09:00 +12°C° 0 mm 1 m/S 760 mmHg 69%
    10:00 +13°C° 0 mm 2 m/S 760 mmHg 60%
    11:00 +14°C° 0 mm 2 m/S 760 mmHg 57%
    12:00 +15°C° 0 mm 2 m/S 760 mmHg 53%
    13:00 +16°C° 0 mm 1 m/S 759 mmHg 50%
    14:00 +16°C° 0 mm 2 m/S 759 mmHg 50%
    15:00 +16°C° 0 mm 2 m/S 759 mmHg 51%
    16:00 +16°C° 0 mm 2 m/S 759 mmHg 51%
    17:00 +15°C° 0 mm 2 m/S 759 mmHg 58%
    18:00 +14°C° 0 mm 2 m/S 759 mmHg 64%
    19:00 +13°C° 0 mm 2 m/S 759 mmHg 71%
    20:00 +10°C° 0 mm 2 m/S 759 mmHg 74%
    21:00 +9°C° 0 mm 3 m/S 759 mmHg 76%
    22:00 +8°C° 0 mm 3 m/S 759 mmHg 79%
    23:00 +8°C° 0 mm 3 m/S 759 mmHg 81%

    29 April, Sonntag

    Zeit Temperatur Niederschläge Wind Luftdruck Luftfeuchtigkeit
    00:00 +7°C° 0 mm 3 m/S 759 mmHg 82%
    01:00 +7°C° 0 mm 3 m/S 759 mmHg 84%
    02:00 +7°C° 0 mm 3 m/S 759 mmHg 82%
    03:00 +5°C° 0 mm 4 m/S 758 mmHg 81%
    04:00 +5°C° 0 mm 4 m/S 758 mmHg 80%
    05:00 +6°C° 0 mm 4 m/S 758 mmHg 77%
    06:00 +7°C° 0 mm 4 m/S 757 mmHg 75%
    07:00 +7°C° 0 mm 5 m/S 757 mmHg 72%
    08:00 +9°C° 0 mm 5 m/S 757 mmHg 70%
    09:00 +13°C° 0 mm 5 m/S 756 mmHg 68%
    10:00 +15°C° 0 mm 6 m/S 756 mmHg 65%
    11:00 +16°C° 0 mm 6 m/S 755 mmHg 63%
    12:00 +17°C° 0 mm 6 m/S 754 mmHg 61%
    13:00 +18°C° 0 mm 7 m/S 754 mmHg 58%
    14:00 +19°C° 0 mm 6 m/S 753 mmHg 60%
    15:00 +19°C° 0 mm 6 m/S 753 mmHg 62%
    16:00 +17°C° 0 mm 5 m/S 752 mmHg 65%
    17:00 +17°C° 0,1 mm 5 m/S 752 mmHg 68%
    18:00 +16°C° 0,1 mm 5 m/S 752 mmHg 71%
    19:00 +15°C° 0,1 mm 5 m/S 751 mmHg 75%
    20:00 +14°C° 0,5 mm 4 m/S 751 mmHg 79%
    21:00 +14°C° 0,5 mm 4 m/S 751 mmHg 84%
    22:00 +13°C° 0,5 mm 3 m/S 751 mmHg 89%
    23:00 +13°C° 0,7 mm 3 m/S 750 mmHg 91%
    Mehr zeigen